SP5AP-3 Weather Reports


Display with metric or nautical units.
time (UTC)temp
F
wind
direction
speed
MPH
gust
MPH
rain 1hr
in
rain 24hr
in
rain mn
in
humidity
%
barometer
mb
20260502202008 64 0 0.0 0.0 0.00 0.00 0.00 4 1017.8
20260502201508 64 0 0.0 0.0 0.00 0.00 0.00 4 1017.7
20260502201008 63 0 0.0 0.0 0.00 0.00 0.00 4 1017.7
20260502200507 63 0 0.0 0.0 0.00 0.00 0.00 4 1017.8
20260502200007 63 0 0.0 0.0 0.00 0.00 0.00 4 1017.8
20260502195507 63 0 0.0 0.0 0.00 0.00 0.00 4 1017.7
20260502195006 63 0 0.0 0.0 0.00 0.00 0.00 4 1017.8
20260502194506 63 0 0.0 0.0 0.00 0.00 0.00 4 1017.9
20260502194006 63 0 0.0 0.0 0.00 0.00 0.00 4 1018.1
20260502193505 63 0 0.0 0.0 0.00 0.00 0.00 4 1017.9
20260502193005 63 0 0.0 0.0 0.00 0.00 0.00 4 1018.0
20260502192505 63 0 0.0 0.0 0.00 0.00 0.00 4 1018.0
20260502192004 63 0 0.0 0.0 0.00 0.00 0.00 4 1018.0
20260502191504 63 0 0.0 0.0 0.00 0.00 0.00 4 1018.2
20260502191004 64 0 0.0 0.0 0.00 0.00 0.00 4 1018.1
20260502190503 64 0 0.0 0.0 0.00 0.00 0.00 4 1017.9
20260502190003 64 0 0.0 0.0 0.00 0.00 0.00 4 1017.9
20260502185503 65 0 0.0 0.0 0.00 0.00 0.00 4 1018.0
20260502185002 65 0 0.0 0.0 0.00 0.00 0.00 3 1017.9
20260502184502 65 0 0.0 0.0 0.00 0.00 0.00 3 1017.9
20260502184002 66 0 0.0 0.0 0.00 0.00 0.00 3 1017.8
20260502183501 66 0 0.0 0.0 0.00 0.00 0.00 3 1018.1
20260502183001 67 0 0.0 0.0 0.00 0.00 0.00 3 1017.9
20260502182501 67 0 0.0 0.0 0.00 0.00 0.00 3 1018.0
20260502182000 68 0 0.0 0.0 0.00 0.00 0.00 3 1017.9
20260502181500 68 0 0.0 0.0 0.00 0.00 0.00 3 1018.0
20260502181000 68 0 0.0 0.0 0.00 0.00 0.00 3 1017.7
20260502180459 69 0 0.0 0.0 0.00 0.00 0.00 3 1017.8
20260502170455 73 327 0.0 1.0 0.00 0.00 0.00 2 1017.7
20260502163954 74 18 0.0 1.0 0.00 0.00 0.00 2 1017.8
20260502163453 74 218 1.0 2.0 0.00 0.00 0.00 2 1017.9
20260502162953 74 0 0.0 0.0 0.00 0.00 0.00 2 1018.1
20260502162453 74 252 1.0 2.0 0.00 0.00 0.00 2 1018.0
20260502161952 75 180 0.0 1.0 0.00 0.00 0.00 2 1017.9
20260502161452 74 0 0.0 0.0 0.00 0.00 0.00 2 1018.1
20260502160952 75 0 0.0 0.0 0.00 0.00 0.00 2 1018.0
20260502160451 75 338 0.0 1.0 0.00 0.00 0.00 2 1018.2
20260502151948 76 340 0.0 1.0 0.00 0.00 0.00 2 1018.6
20260502151448 76 234 0.0 1.0 0.00 0.00 0.00 2 1018.7
20260502150948 76 0 0.0 0.0 0.00 0.00 0.00 2 1018.7
20260502150447 76 107 0.0 1.0 0.00 0.00 0.00 2 1018.8
20260502130440 76 0 0.0 0.0 0.00 0.00 0.00 2 1020.1
20260502123438 77 0 0.0 0.0 0.00 0.00 0.00 2 1020.4
20260502122937 77 42 1.0 2.0 0.00 0.00 0.00 2 1020.6
20260502122437 76 268 1.0 2.0 0.00 0.00 0.00 2 1020.5
20260502121937 76 0 0.0 0.0 0.00 0.00 0.00 2 1020.5
20260502121436 77 13 0.0 1.0 0.00 0.00 0.00 2 1020.8
20260502120936 77 0 0.0 0.0 0.00 0.00 0.00 2 1020.9
20260502120436 77 204 2.0 3.0 0.00 0.00 0.00 2 1020.8
20260502115435 78 333 0.0 1.0 0.00 0.00 0.00 2 1021.0
20260502114935 76 0 0.0 0.0 0.00 0.00 0.00 2 1021.1
20260502114434 77 161 0.0 1.0 0.00 0.00 0.00 2 1021.1
20260502113934 77 0 0.0 0.0 0.00 0.00 0.00 2 1021.3
20260502113434 76 1 0.0 1.0 0.00 0.00 0.00 2 1020.9
20260502112933 75 0 0.0 0.0 0.00 0.00 0.00 2 1021.3
20260502112433 76 220 4.0 6.0 0.00 0.00 0.00 2 1021.4
20260502111933 76 18 0.0 1.0 0.00 0.00 0.00 2 1021.3
20260502111432 75 0 0.0 0.0 0.00 0.00 0.00 3 1021.3
20260502110932 75 0 0.0 0.0 0.00 0.00 0.00 2 1021.5
20260502110431 74 0 0.0 1.0 0.00 0.00 0.00 3 1021.4
20260502105931 74 221 2.0 3.0 0.00 0.00 0.00 3 1021.7
20260502105431 74 351 0.0 1.0 0.00 0.00 0.00 3 1021.6
20260502104931 74 0 0.0 0.0 0.00 0.00 0.00 3 1021.8
20260502104430 74 0 0.0 0.0 0.00 0.00 0.00 3 1021.8
20260502103930 74 0 0.0 0.0 0.00 0.00 0.00 3 1021.7
20260502103430 74 352 1.0 3.0 0.00 0.00 0.00 3 1021.7
20260502102929 74 0 0.0 0.0 0.00 0.00 0.00 3 1021.8
20260502102429 73 0 0.0 0.0 0.00 0.00 0.00 3 1022.1
20260502101928 73 194 3.0 4.0 0.00 0.00 0.00 3 1022.2
20260502101428 73 0 0.0 0.0 0.00 0.00 0.00 3 1022.2
20260502100928 73 270 0.0 1.0 0.00 0.00 0.00 3 1022.2
20260502100428 73 0 0.0 0.0 0.00 0.00 0.00 3 1022.0
20260502091425 72 0 0.0 0.0 0.00 0.00 0.00 3 1022.6
20260502090924 73 0 0.0 0.0 0.00 0.00 0.00 3 1022.9
20260502090424 73 351 2.0 3.0 0.00 0.00 0.00 3 1022.7
20260502071416 68 0 0.0 0.0 0.00 0.00 0.00 4 1023.3
20260502070916 67 359 0.0 1.0 0.00 0.00 0.00 4 1023.4
20260502070416 67 0 0.0 0.0 0.00 0.00 0.00 4 1023.4
20260502065915 66 320 0.0 1.0 0.00 0.00 0.00 4 1023.6
20260502065415 65 0 0.0 0.0 0.00 0.00 0.00 4 1023.5
20260502064915 65 7 1.0 2.0 0.00 0.00 0.00 4 1023.4
20260502064414 65 0 0.0 0.0 0.00 0.00 0.00 4 1023.5
20260502063914 64 276 0.0 1.0 0.00 0.00 0.00 4 1023.6
20260502063414 63 0 0.0 0.0 0.00 0.00 0.00 4 1023.5
20260502062913 64 0 0.0 0.0 0.00 0.00 0.00 4 1023.7
20260502062413 64 0 0.0 0.0 0.00 0.00 0.00 4 1023.6
20260502061913 63 0 0.0 0.0 0.00 0.00 0.00 4 1023.5
20260502061412 62 346 0.0 1.0 0.00 0.00 0.00 5 1023.6
20260502060912 62 0 0.0 0.0 0.00 0.00 0.00 5 1023.7
20260502060412 62 0 0.0 0.0 0.00 0.00 0.00 5 1023.7
20260502055911 61 0 0.0 0.0 0.00 0.00 0.00 5 1023.6
20260502055411 60 0 0.0 0.0 0.00 0.00 0.00 5 1023.7
20260502054911 59 0 0.0 0.0 0.00 0.00 0.00 5 1023.5
20260502054410 58 0 0.0 0.0 0.00 0.00 0.00 5 1023.5
20260502053910 58 0 0.0 0.0 0.00 0.00 0.00 5 1023.7
20260502053410 56 0 0.0 0.0 0.00 0.00 0.00 5 1023.6
20260502052909 55 0 0.0 0.0 0.00 0.00 0.00 6 1023.8
20260502052409 54 0 0.0 0.0 0.00 0.00 0.00 6 1023.8
20260502051909 54 0 0.0 0.0 0.00 0.00 0.00 6 1023.9
20260502051408 53 0 0.0 0.0 0.00 0.00 0.00 6 1023.8
20260502050908 53 0 0.0 0.0 0.00 0.00 0.00 6 1023.7
20260502050408 52 0 0.0 0.0 0.00 0.00 0.00 6 1024.1
20260502045907 52 0 0.0 0.0 0.00 0.00 0.00 6 1023.9
20260502045407 52 0 0.0 0.0 0.00 0.00 0.00 6 1024.0
20260502044907 51 0 0.0 0.0 0.00 0.00 0.00 6 1023.9
20260502044406 50 0 0.0 0.0 0.00 0.00 0.00 6 1023.7
20260502043906 49 0 0.0 0.0 0.00 0.00 0.00 7 1023.9
20260502043406 49 0 0.0 0.0 0.00 0.00 0.00 7 1023.8
20260502042905 48 0 0.0 0.0 0.00 0.00 0.00 7 1024.0
20260502042405 48 0 0.0 0.0 0.00 0.00 0.00 7 1023.9
20260502041905 47 0 0.0 0.0 0.00 0.00 0.00 7 1024.1
20260502041404 47 0 0.0 0.0 0.00 0.00 0.00 7 1023.8
20260502040904 47 0 0.0 0.0 0.00 0.00 0.00 7 1023.9
20260502040404 47 0 0.0 0.0 0.00 0.00 0.00 7 1024.2
20260502035903 47 0 0.0 0.0 0.00 0.00 0.00 7 1024.0
20260502035403 47 0 0.0 0.0 0.00 0.00 0.00 7 1023.9
20260502034903 47 0 0.0 0.0 0.00 0.00 0.00 7 1023.9
20260502034402 47 0 0.0 0.0 0.00 0.00 0.00 7 1024.0
20260502033902 47 0 0.0 0.0 0.00 0.00 0.00 7 1023.7
20260502033402 47 0 0.0 0.0 0.00 0.00 0.00 7 1023.7
20260502032901 47 0 0.0 0.0 0.00 0.00 0.00 7 1023.9
20260502032401 47 0 0.0 0.0 0.00 0.00 0.00 7 1023.9
20260502031901 47 0 0.0 0.0 0.00 0.00 0.00 7 1023.7
20260502031400 48 0 0.0 0.0 0.00 0.00 0.00 7 1023.9
20260502030900 48 0 0.0 0.0 0.00 0.00 0.00 7 1023.8
20260502030400 48 0 0.0 0.0 0.00 0.00 0.00 7 1023.7
20260502025859 48 0 0.0 0.0 0.00 0.00 0.00 7 1024.0
20260502025359 48 0 0.0 0.0 0.00 0.00 0.00 7 1023.7
20260502024859 48 0 0.0 0.0 0.00 0.00 0.00 7 1023.8
20260502024358 48 0 0.0 0.0 0.00 0.00 0.00 7 1023.8
20260502023858 48 0 0.0 0.0 0.00 0.00 0.00 7 1023.8
20260502023358 48 0 0.0 0.0 0.00 0.00 0.00 7 1023.8
20260502022858 49 0 0.0 0.0 0.00 0.00 0.00 7 1023.6
20260502022357 49 0 0.0 0.0 0.00 0.00 0.00 7 1023.9
20260502021857 49 0 0.0 0.0 0.00 0.00 0.00 7 1023.9
20260502021356 49 0 0.0 0.0 0.00 0.00 0.00 7 1023.7
20260502020856 49 0 0.0 0.0 0.00 0.00 0.00 7 1024.0
20260502020356 49 0 0.0 0.0 0.00 0.00 0.00 6 1023.8
20260502015855 49 0 0.0 0.0 0.00 0.00 0.00 7 1023.9
20260502015355 50 0 0.0 0.0 0.00 0.00 0.00 6 1024.0
20260502014855 50 0 0.0 0.0 0.00 0.00 0.00 6 1023.7
20260502014354 50 0 0.0 0.0 0.00 0.00 0.00 6 1023.8
20260502013854 50 0 0.0 0.0 0.00 0.00 0.00 6 1023.8
20260502013354 50 0 0.0 0.0 0.00 0.00 0.00 6 1024.0
20260502012853 50 0 0.0 0.0 0.00 0.00 0.00 6 1024.0
20260502012353 50 0 0.0 0.0 0.00 0.00 0.00 6 1023.7
20260502011853 50 0 0.0 0.0 0.00 0.00 0.00 6 1023.8
20260502011352 51 0 0.0 0.0 0.00 0.00 0.00 6 1024.0
20260502010852 51 0 0.0 0.0 0.00 0.00 0.00 6 1023.9
20260502010352 51 0 0.0 0.0 0.00 0.00 0.00 6 1023.9
20260502005851 51 0 0.0 0.0 0.00 0.00 0.00 6 1023.9
20260502005351 51 0 0.0 0.0 0.00 0.00 0.00 6 1023.9
20260502004851 51 0 0.0 0.0 0.00 0.00 0.00 6 1023.9
20260502004350 51 0 0.0 0.0 0.00 0.00 0.00 6 1023.8
20260502003850 51 0 0.0 0.0 0.00 0.00 0.00 6 1023.7
20260502003350 51 0 0.0 0.0 0.00 0.00 0.00 6 1023.8
20260502002849 51 0 0.0 0.0 0.00 0.00 0.00 6 1023.9
20260502002349 51 0 0.0 0.0 0.00 0.00 0.00 6 1024.0
20260502001848 51 0 0.0 0.0 0.00 0.00 0.00 6 1023.9
20260502001348 51 0 0.0 0.0 0.00 0.00 0.00 6 1024.1
20260502000848 51 0 0.0 0.0 0.00 0.00 0.00 6 1024.0
20260502000347 50 0 0.0 0.0 0.00 0.00 0.00 6 1024.1
20260501235847 50 0 0.0 0.0 0.00 0.00 0.00 6 1024.0
20260501235347 50 0 0.0 0.0 0.00 0.00 0.00 6 1024.0
20260501234846 50 0 0.0 0.0 0.00 0.00 0.00 6 1024.0
20260501234346 50 0 0.0 0.0 0.00 0.00 0.00 6 1024.2
20260501233846 50 0 0.0 0.0 0.00 0.00 0.00 6 1024.1
20260501233345 51 0 0.0 0.0 0.00 0.00 0.00 6 1023.8
20260501232845 50 0 0.0 0.0 0.00 0.00 0.00 6 1023.9
20260501232345 51 0 0.0 0.0 0.00 0.00 0.00 6 1023.8
20260501231844 51 0 0.0 0.0 0.00 0.00 0.00 6 1023.9
20260501231344 51 0 0.0 0.0 0.00 0.00 0.00 7 1024.1
20260501230844 50 0 0.0 0.0 0.00 0.00 0.00 7 1024.1
20260501230343 50 0 0.0 0.0 0.00 0.00 0.00 7 1023.9
20260501225843 50 0 0.0 0.0 0.00 0.00 0.00 7 1024.1
20260501225343 50 0 0.0 0.0 0.00 0.00 0.00 7 1023.9
20260501224842 50 0 0.0 0.0 0.00 0.00 0.00 7 1024.0
20260501224342 50 0 0.0 0.0 0.00 0.00 0.00 7 1024.0
20260501223842 50 0 0.0 0.0 0.00 0.00 0.00 7 1024.0
20260501223341 50 0 0.0 0.0 0.00 0.00 0.00 7 1024.1
20260501222841 50 0 0.0 0.0 0.00 0.00 0.00 7 1024.0
20260501222341 51 0 0.0 0.0 0.00 0.00 0.00 7 1024.0
20260501221840 51 0 0.0 0.0 0.00 0.00 0.00 7 1024.0
20260501221340 51 0 0.0 0.0 0.00 0.00 0.00 7 1023.9
20260501220840 51 0 0.0 0.0 0.00 0.00 0.00 6 1023.9
20260501220339 51 0 0.0 0.0 0.00 0.00 0.00 7 1024.0
20260501215839 51 0 0.0 0.0 0.00 0.00 0.00 6 1024.1
20260501215339 51 0 0.0 0.0 0.00 0.00 0.00 6 1024.2
20260501214838 51 0 0.0 0.0 0.00 0.00 0.00 6 1023.9
20260501214338 51 0 0.0 0.0 0.00 0.00 0.00 6 1024.0
20260501213838 52 0 0.0 0.0 0.00 0.00 0.00 6 1023.9
20260501213337 52 0 0.0 0.0 0.00 0.00 0.00 6 1024.0
20260501212837 52 0 0.0 0.0 0.00 0.00 0.00 6 1024.0
20260501212337 52 0 0.0 0.0 0.00 0.00 0.00 6 1023.9
20260501211836 52 0 0.0 0.0 0.00 0.00 0.00 6 1023.9
20260501211336 52 0 0.0 0.0 0.00 0.00 0.00 6 1023.9
20260501210836 52 0 0.0 0.0 0.00 0.00 0.00 6 1023.8
20260501210335 52 0 0.0 0.0 0.00 0.00 0.00 6 1023.8
20260501205835 53 0 0.0 0.0 0.00 0.00 0.00 6 1023.8
20260501205335 53 0 0.0 0.0 0.00 0.00 0.00 6 1023.9
20260501204834 53 0 0.0 0.0 0.00 0.00 0.00 6 1023.9
20260501204334 53 0 0.0 0.0 0.00 0.00 0.00 6 1023.9
20260501203834 53 0 0.0 0.0 0.00 0.00 0.00 6 1023.9
20260501203333 54 0 0.0 0.0 0.00 0.00 0.00 6 1023.9
20260501202833 54 0 0.0 0.0 0.00 0.00 0.00 6 1023.9
20260501202333 54 0 0.0 0.0 0.00 0.00 0.00 6 1023.9